Flag for U.S.A. Weather past 2 weeks in Palo Alto, California, U.S.A.

Now
65 °F

Overcast.


Feels Like: 65 °F
Forecast: 61 / 74 °F
Wind: No wind

Location: Moffett Field

Current Time: Jul 6, 2015 at 2:28:40 AM

Latest Report: Jul 6, 2015 at 1:56 AM


Visibility: 10 mi

Pressure: 30.03 "Hg

Humidity: 78%

Dew point: 58 °F

Location of Palo AltoLocation

Historic Weather in Palo Alto — Graph

°F

Palo Alto temperature yesterday

Maximum temperature yesterday: 77 °F (at 1:56 PM)
Minimum temperature yesterday: 61 °F (at 5:56 AM)
Average temperature yesterday: 69 °F

Past Weeks' High & Low Weather Summary

 TemperatureHumidityPressure
High89 °F (Jun 30, 3:56 PM)90% (Jun 21, 12:56 AM)30.08 "Hg (Jun 21, 12:56 AM)
Low55 °F (Jun 22, 4:56 AM)31% (Jun 30, 3:56 PM)29.81 "Hg (Jun 30, 5:56 PM)
Average67 °F70%29.95 "Hg
* Reported Jun 21 12:56 AM — Jul 6 12:56 AM, Palo Alto, Weather by CustomWeather, © 2015

Note: Actual official high and low records may vary slightly from our data, if they occured in-between our weather recording intervals... More about our weather records

Advertising

Palo Alto weather history for previous 24 hours

 ConditionsComfort  
Time TempWeatherWind HumidityBarometerVisibility
12:56 AM
Mon, Jul 6
65 °FOvercast.5 mph81%30.02 "Hg10 mi
11:56 PM
Sun, Jul 5
65 °FOvercast.No wind81%30.01 "Hg10 mi
10:56 PM64 °FPassing clouds.10 mph84%30.01 "Hg10 mi
9:56 PM64 °FClear.10 mph84%29.99 "Hg10 mi
8:56 PM65 °FSunny.13 mph78%29.98 "Hg10 mi
7:56 PM68 °FSunny.15 mph73%29.96 "Hg10 mi
6:56 PM71 °FSunny.22 mph71%29.94 "Hg10 mi
5:56 PM73 °FSunny.16 mph66%29.93 "Hg10 mi
4:56 PM74 °FSunny.20 mph62%29.93 "Hg10 mi
3:56 PM75 °FSunny.15 mph60%29.93 "Hg10 mi
2:56 PM77 °FSunny.15 mph56%29.94 "Hg10 mi
1:56 PM77 °FSunny.14 mph54%29.96 "Hg10 mi
12:56 PM76 °FSunny.10 mph58%29.96 "Hg10 mi
11:56 AM76 °FSunny.10 mph58%29.97 "Hg10 mi
10:56 AM76 °FSunny.3 mph52%29.97 "Hg10 mi
9:56 AM71 °FSunny.5 mph59%29.97 "Hg10 mi
8:56 AM68 °FSunny.5 mph68%29.97 "Hg10 mi
7:56 AM65 °FPartly sunny.3 mph76%29.96 "Hg10 mi
6:56 AM63 °FPartly sunny.5 mph81%29.94 "Hg10 mi
5:56 AM61 °FClear.6 mph87%29.93 "Hg10 mi
4:56 AM63 °FOvercast.8 mph81%29.92 "Hg10 mi
3:56 AM64 °FOvercast.6 mph81%29.90 "Hg10 mi
2:56 AM65 °FOvercast.3 mph81%29.90 "Hg9 mi
Weather by CustomWeather, © 2015

See weather overviewHow to use our weather pages